Altus, OK

7:02 PM CDT on July 27, 2017 (GMT -0500)
Altus Municipal

Weather History for KAXS - March, 2013

Change the Weather History Date:

Sunday, March 3, 2013

  Actual Average (KLTS) Record (KLTS)
Temperature  
Mean Temperature 54 °F -  
Max Temperature 77 °F 58 °F 80 °F (1997)
Min Temperature 32 °F 32 °F 7 °F (2014)
Degree Days  
Heating Degree Days 10    
Growing Degree Days 4 (Base 50)    
Moisture  
Dew Point 32 °F    
Average Humidity 50    
Maximum Humidity 93    
Minimum Humidity 18    
Precipitation  
Precipitation 0.00 in - - ()
Sea Level Pressure  
Sea Level Pressure 29.87 in    
Wind  
Wind Speed 11 mph (SSE)    
Max Wind Speed 25 mph    
Max Gust Speed 31 mph    
Visibility 10 miles    
Events      
Averages and records for this station are not official NWS values.
T = Trace of Precipitation, MM = Missing Value Source: NWS Daily Summary

Daily Weather History Graph

Daily Weather History Graph

Search for Another Location

Airport or City:

Trip Planner

Search our weather history database for the weather conditions in past years. The results will help you decide how hot, cold, wet, or windy it might be!

Date:

Astronomy

Mar. 03, 2013 Rise Set
Actual Time 7:03 AM CST 6:35 PM CST
Civil Twilight 6:38 AM CST 7:00 PM CST
Nautical Twilight 6:09 AM CST 7:29 PM CST
Astronomical Twilight 5:39 AM CST 7:59 PM CST
Moon 12:00 AM CST (3/3) 10:36 AM CST (3/3)
Length of Visible Light 12h 22m
Length of Day
11h 31m
Waning Gibbous, 63% of the Moon is Illuminated
Mar 3
Waning Gibbous
Mar 4
Last Quarter
Mar 11
New
Mar 19
First Quarter
Mar 27
Full

Hourly Weather History & Observations

Time (CST) Temp. Windchill Dew Point Humidity Pressure Visibility Wind Dir Wind Speed Gust Speed Precip Events Conditions
12:15 AM 41.0 °F 34.7 °F 32.0 °F 70% 30.17 in 10.0 mi ESE 10.4 mph - N/A   Clear
1:15 AM 37.4 °F 30.8 °F 32.0 °F 81% 30.17 in 10.0 mi East 9.2 mph - N/A   Clear
1:35 AM 37.4 °F 30.8 °F 32.0 °F 81% 30.16 in 10.0 mi ESE 9.2 mph - N/A   Clear
1:55 AM 37.4 °F 30.8 °F 32.0 °F 81% 30.16 in 10.0 mi ESE 9.2 mph - N/A   Clear
2:15 AM 37.4 °F 30.3 °F 32.0 °F 81% 30.14 in 10.0 mi ESE 10.4 mph - N/A   Clear
2:35 AM 37.4 °F 31.4 °F 32.0 °F 81% 30.14 in 10.0 mi ESE 8.1 mph - N/A   Clear
2:55 AM 35.6 °F 28.6 °F 32.0 °F 87% 30.13 in 10.0 mi ESE 9.2 mph - N/A   Clear
3:15 AM 35.6 °F 29.2 °F 32.0 °F 87% 30.12 in 10.0 mi ESE 8.1 mph - N/A   Clear
3:35 AM 35.6 °F 28.6 °F 32.0 °F 87% 30.10 in 10.0 mi ESE 9.2 mph - N/A   Clear
3:55 AM 35.6 °F 28.6 °F 32.0 °F 87% 30.09 in 10.0 mi East 9.2 mph - N/A   Clear
4:15 AM 35.6 °F 28.6 °F 30.2 °F 81% 30.09 in 10.0 mi ESE 9.2 mph - N/A   Clear
4:35 AM 35.6 °F 28.6 °F 30.2 °F 81% 30.08 in 10.0 mi ESE 9.2 mph - N/A   Clear
4:55 AM 33.8 °F 26.4 °F 30.2 °F 87% 30.07 in 10.0 mi ESE 9.2 mph - N/A   Clear
5:15 AM 33.8 °F 27.0 °F 30.2 °F 87% 30.08 in 10.0 mi ESE 8.1 mph - N/A   Clear
5:35 AM 33.8 °F 27.0 °F 30.2 °F 87% 30.08 in 10.0 mi ESE 8.1 mph - N/A   Clear
5:55 AM 33.8 °F 27.7 °F 30.2 °F 87% 30.07 in 10.0 mi ESE 6.9 mph - N/A   Clear
6:15 AM 33.8 °F 27.0 °F 30.2 °F 87% 30.07 in 10.0 mi ESE 8.1 mph - N/A   Clear
6:35 AM 33.8 °F 27.7 °F 30.2 °F 87% 30.06 in 10.0 mi ESE 6.9 mph - N/A   Clear
7:15 AM 32.0 °F 25.6 °F 30.2 °F 93% 30.06 in 10.0 mi ESE 6.9 mph - N/A   Clear
7:35 AM 33.8 °F 27.0 °F 30.2 °F 87% 30.05 in 10.0 mi ESE 8.1 mph - N/A   Clear
7:55 AM 33.8 °F 27.7 °F 30.2 °F 87% 30.04 in 10.0 mi ESE 6.9 mph - N/A   Clear
8:15 AM 35.6 °F 29.9 °F 30.2 °F 81% 30.04 in 10.0 mi ESE 6.9 mph - N/A   Clear
8:35 AM 35.6 °F 29.9 °F 32.0 °F 87% 30.04 in 10.0 mi SE 6.9 mph - N/A   Clear
8:55 AM 41.0 °F 35.8 °F 32.0 °F 70% 30.04 in 10.0 mi SE 8.1 mph - N/A   Clear
9:15 AM 41.0 °F 35.8 °F 33.8 °F 76% 30.03 in 10.0 mi SE 8.1 mph - N/A   Clear
9:35 AM 44.6 °F 40.7 °F 33.8 °F 66% 30.02 in 10.0 mi SSE 6.9 mph - N/A   Clear
9:55 AM 46.4 °F 42.9 °F 35.6 °F 66% 30.01 in 10.0 mi SSE 6.9 mph - N/A   Clear
10:15 AM 50.0 °F - 35.6 °F 58% 30.00 in 10.0 mi SSE 6.9 mph - N/A   Clear
10:35 AM 53.6 °F - 35.6 °F 51% 29.99 in 10.0 mi South 9.2 mph - N/A   Clear
10:55 AM 55.4 °F - 37.4 °F 51% 29.97 in 10.0 mi South 9.2 mph - N/A   Clear
11:15 AM 57.2 °F - 35.6 °F 44% 29.95 in 10.0 mi South 9.2 mph - N/A   Clear
11:35 AM 62.6 °F - 35.6 °F 37% 29.94 in 10.0 mi South 11.5 mph - N/A   Clear
11:55 AM 66.2 °F - 33.8 °F 30% 29.92 in 10.0 mi South 16.1 mph - N/A   Clear
12:15 PM 68.0 °F - 32.0 °F 26% 29.90 in 10.0 mi SSW 17.3 mph - N/A   Clear
12:35 PM 69.8 °F - 32.0 °F 25% 29.88 in 10.0 mi SSW 17.3 mph - N/A   Clear
12:55 PM 69.8 °F - 32.0 °F 25% 29.86 in 10.0 mi South 20.7 mph 27.6 mph N/A   Clear
1:15 PM 71.6 °F - 32.0 °F 23% 29.84 in 10.0 mi SSW 23.0 mph 27.6 mph N/A   Clear
1:35 PM 71.6 °F - 32.0 °F 23% 29.82 in 10.0 mi South 18.4 mph 31.1 mph N/A   Clear
1:55 PM 73.4 °F - 32.0 °F 22% 29.80 in 10.0 mi South 21.9 mph 27.6 mph N/A   Clear
2:15 PM 73.4 °F - 32.0 °F 22% 29.79 in 10.0 mi SSW 25.3 mph 31.1 mph N/A   Clear
2:35 PM 73.4 °F - 30.2 °F 20% 29.76 in 10.0 mi SSW 21.9 mph 28.8 mph N/A   Clear
2:55 PM 75.2 °F - 32.0 °F 21% 29.75 in 10.0 mi SSW 23.0 mph 26.5 mph N/A   Clear
3:15 PM 73.4 °F - 30.2 °F 20% 29.75 in 10.0 mi South 18.4 mph 26.5 mph N/A   Clear
3:35 PM 75.2 °F - 32.0 °F 21% 29.73 in 10.0 mi South 18.4 mph - N/A   Clear
3:55 PM 77.0 °F - 30.2 °F 18% 29.72 in 10.0 mi South 18.4 mph 24.2 mph N/A   Clear
4:15 PM 77.0 °F - 32.0 °F 19% 29.71 in 10.0 mi South 17.3 mph 25.3 mph N/A   Clear
4:55 PM 75.2 °F - 30.2 °F 19% 29.67 in 10.0 mi South 20.7 mph - N/A   Clear
5:15 PM 77.0 °F - 30.2 °F 18% 29.66 in 10.0 mi South 20.7 mph - N/A   Clear
5:35 PM 77.0 °F - 30.2 °F 18% 29.65 in 10.0 mi South 19.6 mph 27.6 mph N/A   Clear
5:55 PM 73.4 °F - 30.2 °F 20% 29.64 in 10.0 mi South 19.6 mph - N/A   Clear
6:15 PM 73.4 °F - 30.2 °F 20% 29.64 in 10.0 mi South 18.4 mph - N/A   Clear
6:35 PM 71.6 °F - 30.2 °F 22% 29.63 in 10.0 mi South 17.3 mph - N/A   Clear
6:55 PM 69.8 °F - 30.2 °F 23% 29.64 in 10.0 mi South 16.1 mph - N/A   Clear
7:15 PM 69.8 °F - 30.2 °F 23% 29.63 in 10.0 mi South 16.1 mph - N/A   Clear
7:35 PM 68.0 °F - 30.2 °F 24% 29.63 in 10.0 mi South 13.8 mph - N/A   Clear
7:55 PM 64.4 °F - 30.2 °F 28% 29.63 in 10.0 mi South 12.7 mph - N/A   Clear
8:15 PM 64.4 °F - 30.2 °F 28% 29.63 in 10.0 mi South 10.4 mph - N/A   Clear
8:35 PM 62.6 °F - 32.0 °F 32% 29.63 in 10.0 mi South 13.8 mph - N/A   Clear
8:55 PM 60.8 °F - 32.0 °F 34% 29.62 in 10.0 mi SSE 9.2 mph - N/A   Clear
9:15 PM 57.2 °F - 33.8 °F 41% 29.63 in 10.0 mi South 8.1 mph - N/A   Clear
9:35 PM 62.6 °F - 32.0 °F 32% 29.62 in 10.0 mi South 10.4 mph - N/A   Clear
9:55 PM 60.8 °F - 30.2 °F 31% 29.62 in 10.0 mi South 10.4 mph - N/A   Clear
10:15 PM 59.0 °F - 30.2 °F 34% 29.61 in 10.0 mi SSE 8.1 mph - N/A   Clear
10:35 PM 53.6 °F - 32.0 °F 44% 29.61 in 10.0 mi SSE 4.6 mph - N/A   Clear
10:55 PM 59.0 °F - 30.2 °F 34% 29.60 in 10.0 mi South 10.4 mph - N/A   Clear
11:15 PM 55.4 °F - 30.2 °F 38% 29.60 in 10.0 mi South 9.2 mph - N/A   Clear
11:35 PM 55.4 °F - 30.2 °F 38% 29.60 in 10.0 mi South 8.1 mph - N/A   Clear